Time,TemperatureF,DewpointF,PressureIn,WindDirection,WindDirectionDegrees,WindSpeedMPH,WindSpeedGustMPH,Humidity,HourlyPrecipIn,Conditions,Clouds,dailyrainin,SoftwareType,DateUTC
2014-09-01 00:02:00,69.0,36.0,-100.00,WSW,258,12.0,16.0,30,-99.99,,,-99.99,,2014-09-01 07:02:00,
2014-09-01 00:22:00,69.0,39.0,-100.00,WSW,255,12.0,16.0,33,-99.99,,,-99.99,,2014-09-01 07:22:00,
2014-09-01 01:22:00,69.0,38.0,-100.00,WSW,254,5.0,9.0,32,-99.99,,,-99.99,,2014-09-01 08:22:00,
2014-09-01 01:52:00,66.0,39.0,-100.00,WNW,282,7.0,10.0,37,-99.99,,,-99.99,,2014-09-01 08:52:00,
2014-09-01 02:22:00,67.0,38.0,-100.00,West,274,8.0,11.0,34,-99.99,,,-99.99,,2014-09-01 09:22:00,
2014-09-01 02:54:00,66.0,38.0,-100.00,West,280,6.0,11.0,35,-99.99,,,-99.99,,2014-09-01 09:54:00,
2014-09-01 03:23:00,66.0,36.0,-100.00,West,271,8.0,11.0,33,-99.99,,,-99.99,,2014-09-01 10:23:00,
2014-09-01 06:52:00,68.0,33.0,-100.00,West,276,11.0,12.0,27,-99.99,,,-99.99,,2014-09-01 13:52:00,
2014-09-01 07:22:00,70.0,33.0,-100.00,West,269,6.0,8.0,25,-99.99,,,-99.99,,2014-09-01 14:22:00,
2014-09-01 09:24:00,79.0,26.0,-100.00,SW,234,14.0,19.0,14,-99.99,,,-99.99,,2014-09-01 16:24:00,
2014-09-01 10:22:00,82.0,26.0,-100.00,SW,232,15.0,21.0,13,-99.99,,,-99.99,,2014-09-01 17:22:00,
2014-09-01 11:52:00,86.0,23.0,-100.00,SW,228,10.0,18.0,10,-99.99,,,-99.99,,2014-09-01 18:52:00,
2014-09-01 13:22:00,88.0,27.0,-100.00,SW,219,9.0,19.0,11,-99.99,,,-99.99,,2014-09-01 20:22:00,
2014-09-01 13:52:00,89.0,28.0,-100.00,SSW,213,11.0,19.0,11,-99.99,,,-99.99,,2014-09-01 20:52:00,
2014-09-01 14:22:00,89.0,28.0,-100.00,SW,214,11.0,19.0,11,-99.99,,,-99.99,,2014-09-01 21:22:00,
2014-09-01 14:54:00,90.0,31.0,-100.00,SSW,208,10.0,17.0,12,-99.99,,,-99.99,,2014-09-01 21:54:00,
2014-09-01 15:23:00,89.0,30.0,-100.00,SW,222,12.0,19.0,12,-99.99,,,-99.99,,2014-09-01 22:23:00,
2014-09-01 15:53:00,90.0,31.0,-100.00,SW,220,10.0,17.0,12,-99.99,,,-99.99,,2014-09-01 22:53:00,
2014-09-01 16:53:00,88.0,31.0,-100.00,SW,230,12.0,19.0,13,-99.99,,,-99.99,,2014-09-01 23:53:00,
2014-09-01 17:22:00,88.0,31.0,-100.00,SW,214,12.0,18.0,13,-99.99,,,-99.99,,2014-09-02 00:22:00,
2014-09-01 17:52:00,87.0,30.0,-100.00,SW,226,12.0,17.0,13,-99.99,,,-99.99,,2014-09-02 00:52:00,
2014-09-01 20:21:00,76.0,40.0,-100.00,West,263,10.0,14.0,27,-99.99,,,-99.99,,2014-09-02 03:21:00,
2014-09-01 20:54:00,73.0,41.0,-100.00,West,274,12.0,15.0,32,-99.99,,,-99.99,,2014-09-02 03:54:00,